Date,TemperatureHighF,TemperatureAvgF,TemperatureLowF,DewpointHighF,DewpointAvgF,DewpointLowF,HumidityHigh,HumidityAvg,HumidityLow,PressureMaxIn,PressureMinIn,WindSpeedMaxMPH,WindSpeedAvgMPH,GustSpeedMaxMPH,PrecipitationSumIn
2013-2-1,29.6,24.2,19.1,20.0,13.5,5.0,87,65,36,30.23,29.77,15,5,20,0.01
2013-2-2,22.9,18.9,13.6,20.0,11.4,6.0,92,73,56,30.29,30.03,12,3,16,0.00
2013-2-3,27.8,21.1,15.3,22.0,17.7,13.0,92,87,75,30.03,29.80,6,1,12,0.05
2013-2-4,28.6,23.5,17.9,20.0,12.7,10.0,84,64,47,29.99,29.83,10,4,23,0.05
2013-2-5,30.3,26.8,23.9,26.0,22.8,17.0,93,85,75,29.96,29.88,3,0,7,0.01
2013-2-6,36.9,30.2,24.6,28.0,21.3,11.0,94,72,45,30.34,29.91,9,2,16,0.04
2013-2-7,32.1,25.5,16.8,20.0,13.8,10.0,81,62,49,30.48,30.30,8,1,10,0.04
2013-2-8,33.6,31.1,28.7,31.0,27.6,19.0,94,87,68,30.29,29.69,8,2,15,0.07
2013-2-9,32.5,25.8,18.6,29.0,16.5,7.0,95,70,43,30.36,29.76,14,3,25,0.03
2013-2-10,37.5,24.8,9.1,17.0,12.4,6.0,88,61,41,30.47,30.29,6,1,9,0.04
2013-2-11,38.6,34.5,30.0,38.0,31.8,18.0,96,90,59,30.29,29.66,4,1,7,0.31
2013-2-12,41.8,37.1,30.0,36.0,26.6,23.0,97,67,56,29.97,29.74,15,5,23,0.32
2013-2-13,43.9,33.6,22.4,31.0,25.8,20.0,93,74,51,29.95,29.68,5,1,8,0.02
2013-2-14,43.4,34.7,28.5,33.0,28.6,25.0,96,80,57,29.98,29.70,9,2,13,0.02
2013-2-15,52.9,40.1,30.6,35.0,29.7,26.0,90,68,45,29.99,29.91,15,3,22,0.07
2013-2-16,33.6,31.1,26.5,31.0,23.5,11.0,94,74,50,29.97,29.77,9,2,17,0.11
2013-2-17,29.1,23.4,16.0,11.0,6.1,1.0,59,48,38,30.05,29.73,15,6,34,0.11
2013-2-18,35.3,24.0,13.6,14.0,7.5,1.0,63,50,34,30.28,30.06,8,3,22,0.00
2013-2-19,40.0,32.4,26.1,36.0,25.3,13.0,95,76,51,30.17,29.69,11,2,22,0.30
2013-2-20,33.4,27.1,22.5,25.0,14.7,9.0,73,60,50,30.00,29.74,16,7,25,0.30
2013-2-21,33.4,25.5,20.6,17.0,13.4,11.0,72,61,49,30.31,29.99,10,5,27,0.00
2013-2-22,36.5,27.7,18.4,28.0,19.9,13.0,84,73,58,30.40,30.23,8,1,12,0.00
2013-2-23,41.1,37.1,32.6,40.0,35.5,29.0,96,94,85,30.24,29.81,4,1,9,0.12
2013-2-24,43.6,35.5,30.5,40.0,29.5,22.0,97,80,63,29.99,29.77,11,3,17,0.12
2013-2-25,41.4,34.0,26.4,30.0,25.9,22.0,90,73,58,30.23,30.00,8,1,12,0.00
2013-2-26,42.1,33.1,23.4,32.0,28.0,22.0,95,82,63,30.26,29.84,14,3,21,0.11
2013-2-27,45.7,41.2,34.3,43.0,37.9,32.0,94,88,78,29.82,29.50,17,4,23,0.08
2013-2-28,44.6,38.8,31.2,36.0,32.4,28.0,93,79,55,29.62,29.55,10,2,12,0.08